Weather reports worldwide

Advertisment
Exeter Airport No. 2, United Kingdom (3844): temperature & dewpoint: 10.07.2018 23:00:00 - 16.07.2018 23:00:00 (BST)Exeter Airport No. 2, United Kingdom (3844): wind speed: 10.07.2018 23:00:00 - 16.07.2018 23:00:00 (BST)Exeter Airport No. 2, United Kingdom (3844): wind direction: 10.07.2018 23:00:00 - 16.07.2018 23:00:00 (BST)Exeter Airport No. 2, United Kingdom (3844): reduced air pressure: 10.07.2018 23:00:00 - 16.07.2018 23:00:00 (BST)Exeter Airport No. 2, United Kingdom (3844): visibility: 10.07.2018 23:00:00 - 16.07.2018 23:00:00 (BST)Exeter Airport No. 2, United Kingdom (3844): sunshine duration: 10.07.2018 23:00:00 - 16.07.2018 23:00:00 (BST)Exeter Airport No. 2, United Kingdom (3844): precipitation: 10.07.2018 23:00:00 - 16.07.2018 23:00:00 (BST)
Date & Time tt [°C] td [°C] ff [km/h] ff [kn] dd ppp [hPa] vv [km] sd [min] rr [mm]
16.07.2018 23:00:00 - - - - - - - - -
16.07.2018 22:00:00 14,8 9,9 4 2 WNW 1016,0 30 6 -
16.07.2018 21:00:00 17,0 9,8 11 6 NW 1015,4 40 54 0,0
16.07.2018 20:00:00 19,3 9,7 18 10 WNW 1014,9 45 54 0,0
16.07.2018 19:00:00 21,2 8,7 24 13 W 1014,3 50 48 0,0
16.07.2018 18:00:00 22,6 9,7 18 10 WNW 1013,8 50 6 0,0
16.07.2018 17:00:00 21,5 12,5 21 11 WNW 1014,0 50 6 0,0
16.07.2018 16:00:00 21,2 14,2 13 7 W 1014,0 50 0 0,0
16.07.2018 15:00:00 20,6 15,8 15 8 WNW 1014,0 28 0 0,0
16.07.2018 14:00:00 22,8 15,7 21 11 S 1013,7 30 12 0,0
16.07.2018 13:00:00 22,8 16,6 21 11 SE 1013,7 28 48 0,0
16.07.2018 12:00:00 22,9 16,2 15 8 SSE 1013,8 15 48 0,0
16.07.2018 11:00:00 22,0 15,3 9 5 S 1014,1 25 24 0,0
16.07.2018 10:00:00 20,5 14,7 11 6 SSW 1014,1 22 18 0,0
16.07.2018 09:00:00 17,5 13,9 2 1 ENE 1014,3 23 0 0,0
16.07.2018 08:00:00 15,6 13,3 2 1 NE 1014,6 25 0 0,0
16.07.2018 07:00:00 14,4 13,0 4 2 E 1014,4 18 0 0,0
16.07.2018 06:00:00 13,6 12,4 4 2 NNW 1014,7 17 0 0,0
16.07.2018 05:00:00 13,4 12,0 2 1 NW 1014,5 19 0 0,0
16.07.2018 04:00:00 13,2 12,2 5 3 ENE 1014,9 21 0 0,0
16.07.2018 03:00:00 13,1 11,3 0 0 N 1015,4 21 0 0,0
16.07.2018 02:00:00 13,3 11,6 2 1 ENE 1015,5 24 0 0,0
16.07.2018 01:00:00 14,5 12,2 4 2 ESE 1015,7 28 - 0,0
16.07.2018 00:00:00 15,6 11,6 0 0 N 1015,6 30 0 0,0
15.07.2018 23:00:00 18,7 12,7 5 3 NW 1015,7 35 0 0,0
15.07.2018 22:00:00 20,0 12,7 4 2 N 1015,6 35 0 0,0
15.07.2018 21:00:00 22,0 13,8 13 7 NW 1015,0 40 30 0,0
15.07.2018 20:00:00 22,9 14,0 11 6 S 1014,5 40 30 0,0
15.07.2018 19:00:00 24,3 13,7 18 10 S 1014,3 45 48 0,0
15.07.2018 18:00:00 24,5 13,3 15 8 SSE 1014,7 50 54 0,0
15.07.2018 17:00:00 24,7 13,4 18 10 SSE 1015,3 50 48 0,0
15.07.2018 16:00:00 24,4 12,7 21 11 SSE 1015,7 50 60 0,0
15.07.2018 15:00:00 24,8 13,3 16 9 S 1015,8 45 60 0,0
15.07.2018 14:00:00 23,9 12,8 18 10 S 1016,2 50 60 0,0
15.07.2018 13:00:00 25,2 13,6 11 6 SSW 1016,5 50 60 0,0
15.07.2018 12:00:00 23,1 12,0 9 5 SW 1017,1 2,8 60 0,0
15.07.2018 11:00:00 22,5 11,8 5 3 WSW 1017,1 40 60 0,0
15.07.2018 10:00:00 21,1 13,0 4 2 SE 1017,4 50 60 0,0
15.07.2018 09:00:00 17,9 14,5 4 2 N 1017,8 29 60 0,0
15.07.2018 08:00:00 15,2 13,5 4 2 NNW 1018,1 23 60 0,0
15.07.2018 07:00:00 11,9 11,5 2 1 ENE 1018,4 18 48 0,0
15.07.2018 06:00:00 9,6 9,4 2 1 E 1018,0 5 0 0,0
15.07.2018 05:00:00 9,8 9,6 2 1 E 1018,1 6 0 0,0
15.07.2018 04:00:00 10,2 9,7 2 1 ENE 1018,4 10 0 0,0
15.07.2018 03:00:00 10,8 10,3 2 1 NNE 1018,5 15 0 0,0
15.07.2018 02:00:00 11,1 9,8 4 2 N 1018,7 18 0 0,0
15.07.2018 01:00:00 12,0 10,3 2 1 N 1018,9 23 - 0,0
15.07.2018 00:00:00 15,7 12,7 5 3 NW 1019,0 30 0 0,0
14.07.2018 23:00:00 16,2 12,1 8 4 WNW 1019,1 30 0 0,0
14.07.2018 22:00:00 18,2 11,6 5 3 NW 1019,0 30 6 0,0
14.07.2018 21:00:00 20,5 12,4 11 6 NW 1018,8 28 30 0,0
14.07.2018 20:00:00 21,9 15,1 5 3 E 1018,7 35 6 0,0
14.07.2018 19:00:00 22,3 14,3 11 6 S 1018,5 35 0 0,0
14.07.2018 18:00:00 22,2 13,2 13 7 S 1018,8 35 24 0,0
14.07.2018 17:00:00 23,3 12,9 18 10 S 1018,8 40 60 0,0
14.07.2018 16:00:00 25,1 13,0 15 8 SW 1019,0 50 60 0,0
14.07.2018 15:00:00 24,7 11,0 15 8 SW 1019,3 50 54 0,0
14.07.2018 14:00:00 23,5 11,0 9 5 W 1019,8 45 24 0,0
14.07.2018 13:00:00 22,4 11,2 9 5 NNW 1020,2 45 48 0,0
14.07.2018 12:00:00 22,3 11,4 8 4 NNW 1020,6 16 54 0,0
14.07.2018 11:00:00 21,3 11,4 5 3 NNE 1021,1 40 60 0,0
14.07.2018 10:00:00 19,6 13,3 5 3 W 1021,2 7 60 0,0
14.07.2018 09:00:00 16,8 12,9 4 2 WNW 1021,4 3,6 60 0,0
14.07.2018 08:00:00 14,8 13,1 4 2 NNW 1021,4 16 60 0,0
14.07.2018 07:00:00 13,1 12,7 2 1 NNE 1021,4 8 48 0,0
14.07.2018 06:00:00 10,6 10,0 4 2 N 1021,3 5 0 0,0
14.07.2018 05:00:00 10,4 9,8 4 2 NE 1021,5 5 0 0,0
14.07.2018 04:00:00 11,5 10,9 2 1 NNW 1021,8 9 0 0,0
14.07.2018 03:00:00 11,6 10,9 0 0 N 1021,7 10 0 0,0
14.07.2018 02:00:00 11,4 9,9 4 2 NW 1021,9 12 0 0,0
14.07.2018 01:00:00 12,0 9,9 2 1 NE 1022,1 11 - 0,0
14.07.2018 00:00:00 14,6 11,8 5 3 NW 1022,3 20 0 0,0
13.07.2018 23:00:00 15,0 11,3 5 3 WNW 1022,2 22 0 0,0
13.07.2018 22:00:00 16,9 11,5 8 4 NNW 1022,0 23 0 0,0
13.07.2018 21:00:00 18,8 11,4 11 6 NW 1021,3 35 42 0,0
13.07.2018 20:00:00 21,3 15,1 8 4 SE 1020,8 28 12 0,0
13.07.2018 19:00:00 21,0 14,5 13 7 S 1020,6 30 12 0,0
13.07.2018 18:00:00 22,0 13,3 16 9 SSE 1020,7 40 6 0,0
13.07.2018 17:00:00 23,0 14,5 15 8 SSE 1020,9 40 36 0,0
13.07.2018 16:00:00 22,8 14,2 16 9 SSE 1021,2 35 12 0,0
13.07.2018 15:00:00 22,7 13,6 16 9 SSE 1021,5 30 54 0,0
13.07.2018 14:00:00 22,7 14,4 18 10 SSE 1021,5 30 60 0,0
13.07.2018 13:00:00 24,2 13,8 13 7 SSW 1021,6 40 60 0,0
13.07.2018 12:00:00 22,8 14,0 9 5 SSE 1021,9 30 60 0,0
13.07.2018 11:00:00 21,4 14,0 4 2 SSE 1022,0 26 60 0,0
13.07.2018 10:00:00 18,0 14,2 4 2 SSE 1022,2 26 42 0,0
13.07.2018 09:00:00 14,4 14,3 2 1 WNW 1022,6 7 0 0,0
13.07.2018 08:00:00 13,3 13,2 8 4 WNW 1022,5 0,3 0 0,0
13.07.2018 07:00:00 13,1 13,0 8 4 NW 1022,1 1,0 0 0,0
13.07.2018 06:00:00 11,2 11,0 4 2 E 1022,0 5 0 0,0
13.07.2018 05:00:00 11,4 10,9 4 2 NNE 1022,0 5 0 0,0
13.07.2018 04:00:00 12,8 12,3 2 1 WNW 1021,9 4,5 0 0,0
13.07.2018 03:00:00 14,1 13,3 4 2 W 1022,1 8 0 0,0
13.07.2018 02:00:00 15,3 14,8 4 2 NW 1022,0 3,8 0 0,0
13.07.2018 01:00:00 16,7 16,0 0 0 N 1021,9 2,9 - 0,0
13.07.2018 00:00:00 16,9 16,4 5 3 E 1022,0 3,9 0 0,0
12.07.2018 23:00:00 16,2 15,4 2 1 E 1021,9 3,3 0 0,0
12.07.2018 22:00:00 17,1 15,6 4 2 SSE 1021,7 8 0 0,0
12.07.2018 21:00:00 18,4 15,9 9 5 SSE 1021,1 16 54 0,0
12.07.2018 20:00:00 19,8 15,6 11 6 SE 1021,0 25 54 0,0
12.07.2018 19:00:00 20,7 15,6 9 5 SE 1021,0 24 0 0,0
12.07.2018 18:00:00 20,9 14,4 11 6 SSW 1020,9 30 12 0,0
12.07.2018 17:00:00 22,1 13,7 13 7 S 1021,1 30 30 0,0
12.07.2018 16:00:00 21,6 14,8 13 7 SE 1021,2 28 0 0,0
12.07.2018 15:00:00 21,6 13,4 15 8 SE 1021,3 30 12 0,0
12.07.2018 14:00:00 21,4 14,0 21 11 SE 1021,3 28 0 0,0
12.07.2018 13:00:00 23,1 13,7 16 9 SE 1021,1 35 0 0,0
12.07.2018 12:00:00 22,8 13,8 11 6 ESE 1021,3 35 42 0,0
12.07.2018 11:00:00 21,9 15,3 9 5 E 1021,2 30 24 0,0
12.07.2018 10:00:00 20,0 14,3 4 2 E 1021,2 27 30 0,0
12.07.2018 09:00:00 18,8 14,5 5 3 NNW 1021,1 27 12 0,0
12.07.2018 08:00:00 17,2 14,3 9 5 NW 1020,9 22 0 0,0
12.07.2018 07:00:00 16,6 14,0 8 4 NW 1020,6 20 0 0,0
12.07.2018 06:00:00 15,3 13,6 2 1 E 1020,5 19 0 0,0
12.07.2018 05:00:00 15,0 12,7 2 1 N 1020,4 23 0 0,0
12.07.2018 04:00:00 16,0 12,6 4 2 N 1020,4 26 0 0,0
12.07.2018 03:00:00 16,9 13,2 4 2 NNW 1020,4 26 0 0,0
12.07.2018 02:00:00 15,4 14,4 2 1 NW 1020,5 16 0 0,0
12.07.2018 01:00:00 14,2 12,8 4 2 ENE 1020,8 14 - 0,0
12.07.2018 00:00:00 16,4 14,2 4 2 NE 1020,8 20 0 0,0
11.07.2018 23:00:00 18,2 15,2 5 3 NNW 1020,7 23 0 0,0
11.07.2018 22:00:00 18,2 14,4 4 2 W 1020,6 21 0 0,0
11.07.2018 21:00:00 19,2 14,1 2 1 SW 1020,5 28 6 0,0
11.07.2018 20:00:00 20,8 14,3 9 5 WSW 1020,4 30 0 0,0
11.07.2018 19:00:00 21,4 14,4 8 4 SSW 1020,3 30 0 0,0
11.07.2018 18:00:00 21,2 13,8 9 5 SW 1020,4 35 0 0,0
11.07.2018 17:00:00 20,5 14,4 9 5 SSE 1020,8 35 0 0,0
11.07.2018 16:00:00 20,8 13,4 11 6 S 1021,1 30 0 0,0
11.07.2018 15:00:00 22,1 12,9 15 8 SSW 1021,2 35 0 0,0
11.07.2018 14:00:00 22,2 12,1 13 7 SSW 1021,3 40 6 0,0
11.07.2018 13:00:00 22,9 12,7 13 7 S 1021,5 45 0 0,0
11.07.2018 12:00:00 22,1 12,1 8 4 S 1021,6 45 6 0,0
11.07.2018 11:00:00 22,4 11,1 9 5 ESE 1021,8 45 12 0,0
11.07.2018 10:00:00 21,0 12,6 8 4 S 1022,0 40 36 0,0
11.07.2018 09:00:00 19,5 14,8 4 2 SSW 1022,0 24 60 0,0
11.07.2018 08:00:00 16,8 14,6 2 1 NE 1022,2 16 48 0,0
11.07.2018 07:00:00 14,3 13,6 4 2 NNE 1022,0 9 0 0,0
11.07.2018 06:00:00 13,6 12,8 4 2 NE 1021,9 9 0 0,0
11.07.2018 05:00:00 14,2 13,4 2 1 NNE 1021,9 11 0 0,0
11.07.2018 04:00:00 13,8 13,2 2 1 NNE 1022,1 12 0 0,0
11.07.2018 03:00:00 13,8 13,4 5 3 NNE 1022,4 11 0 0,0
11.07.2018 02:00:00 12,6 12,2 4 2 ENE 1022,6 11 0 0,0
11.07.2018 01:00:00 12,8 12,3 4 2 ENE 1022,6 10 - 0,0
11.07.2018 00:00:00 12,9 11,9 4 2 NE 1022,8 13 0 0,0
10.07.2018 23:00:00 15,1 13,4 2 1 NE 1022,8 18 0 0,0

tt = temperature
td = dewpoint
ff = wind speed
dd = wind direction
ppp = reduced air pressure
vv = visibility
sd = sunshine duration
rr = precipitation

Next stations